2020-079F (46832 NORAD) Tracking and Keplerian Element Data

This shows tracking and keplerian element data for the satellite.

Feedback or suggestion? Click here.




ElementValue
Catalog46832
Name2020-079F
Epoch Orbit305
Epoch Day331.13124584
Epoch Year2020
RAAN42.9439
Inclination97.2648
Eccentricity0.000886
Argument of Perigee172.4464
Mean Anonmoly274.9269
Mean Motion15.3117669
Decay Rate3.607E-05
L11 46832U 20079F 20331.13124584 .00003607 00000-0 12218-3 0 9991
L22 46832 97.2648 42.9439 0008860 172.4464 274.9269 15.31176690 3058

Live tracking and technical data element details for 2020-079F (NORAD 46832). 2020-079F can be tracked NOW for your location showing map with azimuth and elevation plus other details from your city location.

Track the satellite on the map from your city or location and see movement details for azimuth, elevation, latitude, longitude, range, height, and movement on the map or in text.







IsCatalogInMostPopularTable: catalog: 46832, numindb: 6
Update: records affected: 1



GetName: 46832 2020-079F

Hit Count: updated at: Thu, 26 Nov 2020 21:46:27 GMT